Theta_e
300 301 301 301 300 300 301 301 301 301 301 299 299 298 298 300 300 302 308 307 306 306 302 301 304 303 300 300 299 298 298 297 297 295 296 296 296 297 298 299 301 307 312
300 301 301 298 300 300 300 300 301 301 301 299 299 299 298 299 300 301 301 306 305 304 302 301 301 301 300 299 299 299 297 297 297 295 293 291 294 296 297 299 299 299 303
299 300 302 299 299 300 300 301 301 301 301 301 299 298 298 298 298 299 299 302 304 304 303 301 300 299 299 298 298 297 296 294 296 296 294 290 288 294 296 297 299 298 299
300 299 299 299 300 301 300 300 302 301 302 301 299 298 300 299 301 301 298 300 303 303 302 302 300 299 299 298 298 298 296 295 293 295 298 296 294 290 290 295 298 300 300
298 298 297 299 300 301 301 302 302 302 303 303 301 299 298 300 301 297 297 297 299 301 302 301 300 299 299 297 295 295 293 295 293 293 292 292 292 292 290 288 291 296 299
297 300 300 301 301 302 302 303 303 303 304 303 302 300 298 300 298 299 298 298 296 296 298 298 297 296 295 294 294 294 291 292 292 291 292 291 289 289 289 288 288 289 293
298 298 299 300 301 301 301 302 302 303 305 302 302 302 301 300 299 299 299 298 296 295 295 295 295 294 293 294 293 295 294 292 291 289 290 292 292 293 292 290 289 289 292
299 299 300 301 301 301 301 302 303 301 302 301 301 300 300 300 299 297 296 294 295 294 294 293 294 295 295 295 295 295 295 293 291 290 291 292 292 293 292 290 289 287 288
298 299 301 301 300 299 300 300 300 301 301 300 298 295 294 295 292 291 293 293 293 294 294 295 296 297 297 296 294 292 291 292 292 291 290 291 292 293 293 292 291 288 284
298 300 300 300 300 299 300 301 300 300 300 295 295 293 292 292 292 292 291 291 293 295 296 297 297 297 295 294 293 292 290 290 290 291 290 290 291 292 292 292 291 290 288
297 298 301 302 303 302 302 300 299 298 294 293 293 292 291 291 290 290 291 291 292 294 294 294 294 293 293 292 291 289 289 289 288 288 288 288 289 289 289 290 290 289 289
297 298 299 300 300 299 298 299 298 294 293 293 292 291 290 289 288 289 290 291 291 292 291 291 291 291 291 290 289 288 288 286 285 286 286 286 288 287 287 287 287 287 287
298 298 298 299 299 298 298 299 298 293 293 292 290 288 288 287 288 288 289 290 290 290 290 290 289 290 290 289 288 287 286 286 286 285 285 285 285 283 284 283 283 284 287
299 298 298 298 298 298 298 298 293 293 293 292 288 287 287 287 287 288 288 289 289 289 289 289 290 289 288 287 286 286 284 283 283 283 283 283 283 282 281 282 282 283 282
298 297 297 297 297 297 297 294 294 294 293 289 289 289 290 290 289 288 289 291 290 289 289 288 287 286 285 286 284 283 281 281 281 282 282 282 283 286 286 284 283 282 281
298 298 298 298 297 297 295 294 294 294 294 294 294 294 293 293 292 292 292 291 289 288 286 284 284 283 285 287 287 285 281 281 281 280 280 281 283 283 284 285 285 284 280
296 296 298 297 296 294 293 292 293 294 295 295 295 294 294 293 292 292 291 287 285 283 282 282 281 281 281 286 286 285 282 281 280 280 279 280 281 282 281 283 284 284 285
297 297 297 295 294 293 292 292 293 293 293 293 293 293 292 290 289 286 285 282 282 281 280 280 281 280 282 285 285 284 281 280 280 280 280 280 280 281 281 281 280 281 281
298 297 294 293 292 291 291 291 291 292 290 286 286 286 286 286 285 283 281 281 280 279 279 280 280 280 280 283 283 282 278 278 279 281 281 281 281 283 284 282 281 281 282
295 292 292 291 290 291 289 285 285 285 285 286 286 287 286 284 283 281 280 280 278 279 279 280 279 280 277 281 282 281 280 278 278 279 280 282 281 283 283 281 280 280 281
292 292 291 290 291 293 290 284 284 284 286 287 286 285 285 283 282 280 279 278 278 277 272 271 274 276 278 277 281 282 279 278 278 278 279 280 282 282 283 283 281 281 282
290 291 290 290 292 287 285 283 282 286 286 285 284 284 283 282 281 279 278 278 277 273 272 268 270 273 273 279 280 281 281 281 279 279 280 281 283 283 284 283 282 283 282
288 289 289 290 289 285 285 283 284 285 284 283 282 282 281 280 279 278 277 276 275 271 271 274 271 274 276 276 280 280 280 282 281 281 281 282 281 281 281 282 282 281 281
287 288 290 288 287 285 284 283 284 284 282 281 281 281 279 279 278 278 277 276 271 270 275 273 274 275 275 276 277 279 280 281 281 279 278 277 278 277 276 277 279 279 280
287 289 290 289 286 284 283 284 283 283 282 281 281 280 279 277 277 277 277 276 275 274 273 272 276 274 273 276 280 280 280 281 280 278 275 275 274 274 275 276 276 278 279
289 289 289 285 285 284 283 284 283 282 281 280 279 276 275 274 276 276 276 280 280 280 280 280 278 276 278 280 280 280 281 281 280 277 273 272 273 273 274 273 274 276 277
Wind_Speed
1 6 8 10 10 8 8 7 6 5 3 1 1 2 4 4 4 5 8 7 7 7 7 5 5 5 5 6 5 3 3 2 0 2 4 3 5 5 5 3 4 6 6
6 7 6 3 3 7 7 7 7 6 5 3 4 4 4 4 4 3 6 8 8 8 7 7 6 6 4 5 5 4 2 2 0 0 0 5 7 3 4 5 4 6 4
8 6 5 6 4 6 8 8 8 8 8 8 2 2 1 3 2 4 4 7 10 10 10 8 7 7 6 5 4 4 4 2 1 3 2 4 4 8 2 4 5 6 4
4 1 4 5 7 9 5 6 7 8 7 7 5 8 8 9 9 9 5 6 11 11 9 8 7 6 4 5 4 4 3 3 1 2 2 2 3 5 11 2 4 5 6
5 3 2 3 7 6 7 7 6 6 8 5 7 6 8 10 9 5 7 7 7 8 8 8 8 8 6 6 6 4 4 3 3 3 1 2 2 3 5 12 10 9 5
3 4 4 4 4 5 3 4 5 7 8 8 9 8 10 13 7 9 7 3 4 2 3 6 6 5 4 5 5 5 2 3 3 2 2 3 3 6 5 9 10 11 9
4 4 3 5 4 5 7 4 4 6 7 7 9 9 11 11 10 11 6 5 4 5 5 6 6 5 5 6 6 4 5 5 3 3 4 4 5 6 6 6 9 8 8
2 2 7 6 6 7 8 6 7 8 10 8 10 8 8 5 5 4 2 4 5 5 7 8 7 8 8 7 6 8 7 5 5 7 5 7 7 6 8 7 8 11 10
8 7 5 6 7 7 6 7 7 10 10 10 6 5 3 3 4 5 6 7 8 8 8 9 8 8 8 10 9 4 6 6 5 6 6 7 7 6 7 6 6 8 11
8 6 5 5 1 3 3 5 9 11 10 9 4 2 3 5 5 7 8 7 6 5 6 9 4 6 8 7 7 6 6 5 5 5 6 8 7 7 6 6 7 6 9
5 4 5 5 6 6 6 6 7 7 7 7 4 5 4 4 5 6 6 6 5 4 7 6 6 6 7 7 6 6 6 6 6 6 7 9 9 8 6 6 6 7 7
3 4 2 5 7 7 6 6 6 6 7 6 6 7 5 5 6 6 6 6 6 3 3 4 5 5 5 5 5 6 6 6 7 8 7 11 8 9 6 5 6 6 6
2 3 5 7 7 7 7 7 6 7 7 6 7 6 6 5 6 5 5 5 4 2 3 2 5 5 6 6 6 6 7 8 9 7 6 7 5 5 3 3 4 4 5
4 6 7 7 7 7 7 6 6 6 7 7 2 2 1 3 3 4 3 2 1 3 4 5 5 5 6 6 6 6 5 5 5 5 5 6 6 7 6 6 6 5 5
7 7 7 6 6 7 7 5 6 6 4 2 4 4 4 3 3 3 4 7 6 4 3 4 5 5 4 4 3 4 4 5 6 6 7 8 10 18 15 9 10 9 10
9 11 9 8 8 8 6 5 6 7 5 3 4 3 3 4 5 6 8 9 5 3 3 4 4 6 3 5 2 2 4 6 8 9 10 10 18 18 23 22 21 16 12
12 12 11 10 7 5 5 7 6 6 4 3 1 2 3 5 11 7 6 4 3 2 3 5 4 4 1 5 9 12 7 8 9 10 10 11 10 16 12 17 21 20 22
14 13 9 6 6 5 7 7 5 3 2 3 4 5 3 4 5 5 4 3 2 4 4 5 3 3 4 8 14 15 9 8 10 11 12 12 13 14 15 13 13 13 14
14 8 5 4 5 7 7 5 7 5 6 6 5 5 6 6 4 5 6 4 4 4 3 4 4 4 5 12 16 15 7 9 11 10 12 13 15 20 23 16 14 16 14
4 5 6 5 6 6 5 7 6 6 6 5 5 4 5 5 5 5 5 3 3 4 3 4 4 8 6 13 18 16 7 8 9 11 12 19 19 23 24 16 15 15 14
3 5 5 5 5 4 6 5 4 4 3 4 4 4 5 5 5 4 3 4 5 4 4 4 5 6 7 9 18 19 9 8 10 10 10 9 22 24 24 23 12 14 13
6 6 4 3 4 4 6 4 2 3 4 5 5 5 5 5 4 5 5 5 5 3 4 5 5 5 6 13 14 20 20 19 12 11 9 10 20 21 19 16 18 20 14
6 5 4 3 3 4 3 1 2 4 4 4 5 5 5 5 5 5 5 3 3 2 4 4 5 7 6 6 16 19 22 21 11 8 12 20 18 17 11 13 14 11 8
5 4 6 5 4 2 1 3 1 2 3 4 5 4 5 5 5 4 3 2 3 3 4 5 6 6 6 7 7 9 7 14 6 7 7 8 9 8 7 6 7 5 7
4 4 5 7 6 4 4 3 2 1 3 3 3 4 3 4 4 4 3 2 4 3 3 3 4 6 8 8 16 13 8 6 5 6 4 5 7 7 7 7 7 6 6
3 6 6 5 5 5 5 4 4 2 1 3 3 2 2 3 3 4 4 8 7 11 12 12 6 7 14 17 17 18 14 15 12 4 3 5 7 7 7 8 8 7 8
Wind_Direction
331 58 99 123 126 133 136 148 162 204 152 181 206 240 234 234 243 217 213 214 210 210 185 193 199 197 186 204 201 199 226 295 341 348 318 298 288 293 293 276 284 306 297
85 102 110 113 134 161 165 175 198 206 206 188 206 191 196 224 226 227 211 214 215 208 201 190 198 192 178 195 189 180 172 247 124 188 95 328 311 291 307 303 296 283 294
119 126 146 177 176 191 199 204 210 213 222 222 231 250 310 297 267 246 232 213 203 212 204 202 185 189 186 188 183 146 152 182 289 107 169 336 278 315 297 291 285 299 304
67 112 180 188 214 232 242 239 233 233 234 230 226 217 234 239 238 235 217 223 204 210 205 202 190 179 162 149 147 124 123 119 136 349 82 193 205 302 311 290 309 299 308
125 124 172 214 229 253 245 252 274 289 275 257 235 237 246 248 254 244 223 222 222 212 193 171 158 151 140 137 129 115 103 131 164 165 137 296 286 255 280 302 309 299 287
189 178 97 90 62 29 10 349 310 295 295 294 280 244 245 256 254 253 234 193 158 121 88 119 115 99 105 122 97 74 39 23 7 348 345 220 259 289 283 293 295 287 295
223 275 208 93 85 51 44 39 5 308 301 299 290 276 259 256 254 255 237 165 135 108 122 129 112 96 90 62 44 34 18 284 275 252 255 262 264 272 274 276 287 281 295
202 62 75 72 31 32 29 6 14 335 319 302 295 295 287 269 268 278 163 115 105 93 86 60 50 47 36 24 5 351 324 276 258 265 268 272 273 265 268 261 279 290 293
36 76 88 50 28 22 357 353 332 325 324 316 306 311 341 39 102 88 89 103 109 108 94 79 48 27 357 326 282 260 265 254 259 261 258 260 267 252 258 254 253 267 286
54 37 53 64 358 258 278 333 344 327 318 311 280 272 131 133 126 117 116 111 115 118 105 47 355 266 239 237 251 254 256 260 269 265 261 259 261 254 254 256 263 259 270
74 80 49 14 346 314 305 299 288 297 316 308 248 229 197 153 128 121 121 119 123 160 107 181 214 230 237 241 248 261 273 266 269 266 267 267 265 265 260 258 257 263 266
74 44 339 287 292 281 281 309 309 326 324 299 242 227 197 155 128 119 117 117 111 102 164 225 241 259 267 265 265 265 274 264 265 267 258 269 269 271 253 253 263 267 274
245 275 292 320 306 314 316 316 314 316 308 292 240 217 189 159 146 139 130 125 145 176 253 283 281 277 276 271 262 260 266 268 274 280 279 276 284 283 281 272 275 272 288
316 300 305 299 290 286 285 309 314 318 313 315 257 289 132 134 130 129 121 116 244 250 266 270 285 288 291 294 288 293 314 314 304 303 288 277 264 255 257 263 256 260 261
264 273 286 296 299 306 298 309 315 312 310 63 116 120 133 125 126 87 28 334 286 285 287 292 302 307 295 293 60 41 356 316 295 284 278 275 266 273 270 272 272 269 271
291 323 313 312 300 292 305 316 302 301 293 173 136 116 105 97 55 353 259 251 280 306 296 332 313 307 317 123 20 317 279 277 279 282 283 276 279 277 274 272 270 263 261
314 308 292 275 274 282 287 295 303 311 41 54 333 257 210 197 225 244 273 312 297 328 327 308 320 310 283 298 322 318 298 287 280 276 275 276 271 275 269 270 269 268 263
306 299 287 299 315 301 298 292 299 312 271 337 320 323 311 315 336 331 319 328 332 324 326 319 322 331 309 315 315 315 299 283 278 274 272 270 271 269 271 270 264 262 259
291 301 305 308 306 296 290 315 333 324 69 52 51 27 22 342 325 342 348 331 345 329 324 353 358 339 296 307 316 314 295 286 283 280 277 273 275 274 277 273 260 265 256
326 359 327 302 304 319 54 61 56 43 36 16 11 358 351 356 359 344 344 322 313 331 9 21 352 323 296 307 317 317 300 296 289 285 280 279 277 277 276 272 266 263 256
346 315 314 312 307 331 40 64 62 64 10 347 352 7 1 347 357 350 332 326 346 20 8 338 311 300 297 300 310 312 311 293 291 286 289 284 284 285 280 277 271 261 267
333 316 335 316 348 77 108 146 172 56 8 4 3 352 344 346 353 350 336 2 33 10 319 309 303 283 281 294 302 313 307 302 295 291 286 286 295 305 307 273 257 266 264
302 299 281 299 357 189 233 210 37 28 14 13 348 344 351 350 344 346 353 31 345 311 305 301 305 304 299 292 301 304 302 302 300 305 311 320 325 321 313 308 297 279 266
299 298 316 301 287 179 112 132 103 25 29 350 341 346 348 340 344 354 4 323 302 302 308 310 309 304 311 311 305 292 299 303 313 314 317 315 314 309 302 315 317 289 263
328 346 16 315 289 184 218 214 191 114 1 339 328 328 327 339 334 330 292 288 282 247 313 279 308 330 319 310 319 334 321 335 326 321 322 336 341 339 339 335 331 327 330
3 312 280 269 227 219 230 229 210 216 273 313 306 281 294 308 314 311 312 323 343 343 341 340 353 328 319 334 347 344 348 4 359 353 318 354 344 343 342 345 341 341 342